"Sample Date","Sample Time","Sample Value","Units","Flow Rate","Sample Interval","Number Channels","Micron Size 0","Counts/Channel 0","Micron Size 1","Counts/Channel 1","Micron Size 2","Counts/Channel 2","Micron Size 3","Counts/Channel 3","Micron Size 4","Counts/Channel 4","Micron Size 5","Counts/Channel 5","Micron Size 6","Counts/Channel 6","Micron Size 7","Counts/Channel 7","Micron Size 8","Counts/Channel 8","Micron Size 9","Counts/Channel 9","Micron Size 10","Counts/Channel 10","Micron Size 11","Counts/Channel 11","Micron Size 12","Counts/Channel 12","Micron Size 13","Counts/Channel 13","Micron Size 14","Counts/Channel 14","Micron Size 15","Counts/Channel 15","Micron Size 16","Counts/Channel 16","Micron Size 17","Counts/Channel 17","Micron Size 18","Counts/Channel 18","Micron Size 19","Counts/Channel 19","Micron Size 20","Counts/Channel 20","Micron Size 21","Counts/Channel 21","Micron Size 22","Counts/Channel 22","Micron Size 23","Counts/Channel 23","Micron Size 24","Counts/Channel 24","Micron Size 25","Counts/Channel 25","Micron Size 26","Counts/Channel 26","Micron Size 27","Counts/Channel 27","Micron Size 28","Counts/Channel 28","Micron Size 29","Counts/Channel 29","Micron Size 30","Counts/Channel 30","Micron Size 31","Counts/Channel 31"
"03/05/08","07:00:00",77797.000,"cc",28367.047,6.00,6,0.100,53512.000,0.200,10179.000,0.300,6221.000,0.500,5735.000,1.000,2150.000,5.000,0
"03/05/08","07:00:06",64426.000,"cc",28330.068,6.00,6,0.100,48265.000,0.200,7068.000,0.300,4038.000,0.500,3723.000,1.000,1332.000,5.000,0
"03/05/08","07:00:12",61885.000,"cc",28308.725,6.00,6,0.100,47292.000,0.200,6460.000,0.300,3560.000,0.500,3360.000,1.000,1213.000,5.000,0
"03/05/08","07:00:18",60689.000,"cc",28344.242,6.00,6,0.100,46862.000,0.200,6089.000,0.300,3314.000,0.500,3188.000,1.000,1236.000,5.000,0
"03/05/08","07:00:24",61254.000,"cc",28291.354,6.00,6,0.100,47591.000,0.200,6154.000,0.300,3256.000,0.500,3048.000,1.000,1205.000,5.000,0
"03/05/08","07:00:30",56199.000,"cc",28329.998,6.00,6,0.100,45496.000,0.200,5058.000,0.300,2398.000,0.500,2341.000,1.000,906.000,5.000,0
"03/05/08","07:00:36",57682.000,"cc",28300.840,6.00,6,0.100,45975.000,0.200,5450.000,0.300,2713.000,0.500,2599.000,1.000,945.000,5.000,0
"03/05/08","07:00:42",56786.000,"cc",28327.285,6.00,6,0.100,45436.000,0.200,5308.000,0.300,2662.000,0.500,2468.000,1.000,912.000,5.000,0
"03/05/08","07:00:48",54932.000,"cc",28306.871,6.00,6,0.100,45008.000,0.200,4716.000,0.300,2127.000,0.500,2258.000,1.000,823.000,5.000,0
"03/05/08","07:00:54",59057.000,"cc",28307.967,6.00,6,0.100,46433.000,0.200,5695.000,0.300,3015.000,0.500,2875.000,1.000,1039.000,5.000,0
"03/05/08","07:01:00",62981.000,"cc",28317.731,6.00,6,0.100,47517.000,0.200,6800.000,0.300,3784.000,0.500,3561.000,1.000,1319.000,5.000,0
"03/05/08","07:01:06",64370.000,"cc",28284.688,6.00,6,0.100,48295.000,0.200,7157.000,0.300,3944.000,0.500,3565.000,1.000,1409.000,5.000,0
"03/05/08","07:01:12",61735.000,"cc",28336.734,6.00,6,0.100,47505.000,0.200,6275.000,0.300,3481.000,0.500,3280.000,1.000,1194.000,5.000,0
"03/05/08","07:01:18",55798.000,"cc",28301.537,6.00,6,0.100,45385.000,0.200,4886.000,0.300,2374.000,0.500,2311.000,1.000,842.000,5.000,0
"03/05/08","07:01:24",63496.000,"cc",28349.072,6.00,6,0.100,48037.000,0.200,6860.000,0.300,3797.000,0.500,3491.000,1.000,1311.000,5.000,0
"03/05/08","07:01:30",67183.000,"cc",28322.842,6.00,6,0.100,50027.000,0.200,7652.000,0.300,4331.000,0.500,3774.000,1.000,1399.000,5.000,0
"03/05/08","07:01:36",64176.000,"cc",28313.199,6.00,6,0.100,48833.000,0.200,6949.000,0.300,3826.000,0.500,3355.000,1.000,1213.000,5.000,0
"03/05/08","07:01:42",56438.000,"cc",28304.727,6.00,6,0.100,45955.000,0.200,5124.000,0.300,2427.000,0.500,2175.000,1.000,757.000,5.000,0
"03/05/08","07:01:48",57620.000,"cc",28308.461,6.00,6,0.100,46412.000,0.200,5325.000,0.300,2542.000,0.500,2494.000,1.000,847.000,5.000,0
"03/05/08","07:01:54",56156.000,"cc",28279.068,6.00,6,0.100,45966.000,0.200,5072.000,0.300,2227.000,0.500,2205.000,1.000,686.000,5.000,0
"03/05/08","07:02:00",57736.000,"cc",28348.387,6.00,6,0.100,46250.000,0.200,5463.000,0.300,2681.000,0.500,2414.000,1.000,928.000,5.000,0
"03/05/08","07:02:06",66021.000,"cc",28321.494,6.00,6,0.100,49489.000,0.200,7416.000,0.300,4082.000,0.500,3677.000,1.000,1357.000,5.000,0
"03/05/08","07:02:12",58528.000,"cc",28374.820,6.00,6,0.100,46531.000,0.200,5694.000,0.300,2786.000,0.500,2565.000,1.000,952.000,5.000,0
"03/05/08","07:02:18",61494.000,"cc",28318.461,6.00,6,0.100,47607.000,0.200,6237.000,0.300,3374.000,0.500,3106.000,1.000,1170.000,5.000,0
"03/05/08","07:02:24",55547.000,"cc",28275.602,6.00,6,0.100,45516.000,0.200,4900.000,0.300,2234.000,0.500,2109.000,1.000,788.000,5.000,0
"03/05/08","07:02:30",52820.000,"cc",28405.449,6.00,6,0.100,44434.000,0.200,4197.000,0.300,1726.000,0.500,1849.000,1.000,614.000,5.000,0
"03/05/08","07:02:36",51514.000,"cc",28311.514,6.00,6,0.100,43983.000,0.200,3921.000,0.300,1539.000,0.500,1541.000,1.000,530.000,5.000,0
"03/05/08","07:02:42",51716.000,"cc",28281.484,6.00,6,0.100,44115.000,0.200,3903.000,0.300,1537.000,0.500,1596.000,1.000,565.000,5.000,0
"03/05/08","07:02:48",52733.000,"cc",28310.516,6.00,6,0.100,44270.000,0.200,4255.000,0.300,1739.000,0.500,1846.000,1.000,623.000,5.000,0
"03/05/08","07:02:54",57898.000,"cc",28246.445,6.00,6,0.100,46154.000,0.200,5470.000,0.300,2720.000,0.500,2625.000,1.000,929.000,5.000,0
"03/05/08","07:03:00",57506.000,"cc",28273.760,6.00,6,0.100,45873.000,0.200,5353.000,0.300,2694.000,0.500,2732.000,1.000,854.000,5.000,0
"03/05/08","07:03:06",58620.000,"cc",28326.315,6.00,6,0.100,46215.000,0.200,5728.000,0.300,2965.000,0.500,2712.000,1.000,1000.000,5.000,0
"03/05/08","07:03:12",53842.000,"cc",28395.424,6.00,6,0.100,44435.000,0.200,4590.000,0.300,2066.000,0.500,1999.000,1.000,752.000,5.000,0
"03/05/08","07:03:18",58300.000,"cc",28366.188,6.00,6,0.100,47582.000,0.200,5202.000,0.300,2340.000,0.500,2344.000,1.000,832.000,5.000,0
"03/05/08","07:03:24",57155.000,"cc",28313.803,6.00,6,0.100,47440.000,0.200,4985.000,0.300,2033.000,0.500,1994.000,1.000,703.000,5.000,0
"03/05/08","07:03:30",57134.000,"cc",28277.840,6.00,6,0.100,47109.000,0.200,4949.000,0.300,2182.000,0.500,2121.000,1.000,773.000,5.000,0
"03/05/08","07:03:36",52828.000,"cc",28280.867,6.00,6,0.100,44687.000,0.200,4212.000,0.300,1680.000,0.500,1654.000,1.000,595.000,5.000,0
"03/05/08","07:03:42",56638.000,"cc",28289.291,6.00,6,0.100,46891.000,0.200,4904.000,0.300,2066.000,0.500,2033.000,1.000,744.000,5.000,0
"03/05/08","07:03:48",57008.000,"cc",28335.404,6.00,6,0.100,46472.000,0.200,5108.000,0.300,2399.000,0.500,2253.000,1.000,776.000,5.000,0
"03/05/08","07:03:54",60205.000,"cc",28305.043,6.00,6,0.100,47491.000,0.200,5885.000,0.300,2985.000,0.500,2813.000,1.000,1031.000,5.000,0
"03/05/08","07:04:00",62030.000,"cc",28357.391,6.00,6,0.100,48474.000,0.200,6239.000,0.300,3200.000,0.500,3071.000,1.000,1046.000,5.000,0
"03/05/08","07:04:06",60129.000,"cc",28312.820,6.00,6,0.100,48921.000,0.200,5436.000,0.300,2521.000,0.500,2432.000,1.000,819.000,5.000,0
"03/05/08","07:04:12",55908.000,"cc",28305.262,6.00,6,0.100,46052.000,0.200,4932.000,0.300,2078.000,0.500,2130.000,1.000,716.000,5.000,0
"03/05/08","07:04:18",56575.000,"cc",28300.229,6.00,6,0.100,46892.000,0.200,4796.000,0.300,2106.000,0.500,2048.000,1.000,733.000,5.000,0
"03/05/08","07:04:24",55297.000,"cc",28344.283,6.00,6,0.100,46371.000,0.200,4660.000,0.300,1784.000,0.500,1842.000,1.000,640.000,5.000,0
"03/05/08","07:04:30",61979.000,"cc",28352.984,6.00,6,0.100,50235.000,0.200,5798.000,0.300,2665.000,0.500,2413.000,1.000,868.000,5.000,0
"03/05/08","07:04:36",60562.000,"cc",28319.092,6.00,6,0.100,47449.000,0.200,6026.000,0.300,3015.000,0.500,2981.000,1.000,1091.000,5.000,0
"03/05/08","07:04:42",59633.000,"cc",28293.141,6.00,6,0.100,47633.000,0.200,5653.000,0.300,2721.000,0.500,2662.000,1.000,964.000,5.000,0
"03/05/08","07:04:48",59040.000,"cc",28308.748,6.00,6,0.100,46238.000,0.200,5804.000,0.300,3006.000,0.500,2897.000,1.000,1095.000,5.000,0
"03/05/08","07:04:54",55463.000,"cc",28287.010,6.00,6,0.100,45229.000,0.200,4747.000,0.300,2297.000,0.500,2345.000,1.000,845.000,5.000,0
"03/05/08","07:05:00",56186.000,"cc",28361.582,6.00,6,0.100,46583.000,0.200,4795.000,0.300,2076.000,0.500,1985.000,1.000,747.000,5.000,0
"03/05/08","07:05:06",55601.000,"cc",28356.549,6.00,6,0.100,46493.000,0.200,4641.000,0.300,1883.000,0.500,1876.000,1.000,708.000,5.000,0
"03/05/08","07:05:12",57382.000,"cc",28315.475,6.00,6,0.100,48369.000,0.200,4679.000,0.300,1815.000,0.500,1866.000,1.000,653.000,5.000,0
"03/05/08","07:05:18",52568.000,"cc",28296.504,6.00,6,0.100,44540.000,0.200,4138.000,0.300,1605.000,0.500,1703.000,1.000,582.000,5.000,0
"03/05/08","07:05:24",58361.000,"cc",28298.865,6.00,6,0.100,46940.000,0.200,5416.000,0.300,2620.000,0.500,2451.000,1.000,934.000,5.000,0
"03/05/08","07:05:30",55299.000,"cc",28262.184,6.00,6,0.100,46976.000,0.200,4426.000,0.300,1726.000,0.500,1594.000,1.000,577.000,5.000,0
"03/05/08","07:05:36",57924.000,"cc",28324.596,6.00,6,0.100,48747.000,0.200,4943.000,0.300,1834.000,0.500,1771.000,1.000,629.000,5.000,0
"03/05/08","07:05:42",57326.000,"cc",28344.623,6.00,6,0.100,47440.000,0.200,5037.000,0.300,2013.000,0.500,2124.000,1.000,712.000,5.000,0
"03/05/08","07:05:48",55494.000,"cc",28248.061,6.00,6,0.100,47017.000,0.200,4578.000,0.300,1741.000,0.500,1645.000,1.000,513.000,5.000,0
"03/05/08","07:05:54",55870.000,"cc",28363.766,6.00,6,0.100,47945.000,0.200,4428.000,0.300,1460.000,0.500,1505.000,1.000,532.000,5.000,0
"03/05/08","07:06:00",57606.000,"cc",28386.637,6.00,6,0.100,49349.000,0.200,4568.000,0.300,1577.000,0.500,1543.000,1.000,569.000,5.000,0
"03/05/08","07:06:06",60862.000,"cc",28241.688,6.00,6,0.100,48671.000,0.200,5721.000,0.300,2807.000,0.500,2769.000,1.000,894.000,5.000,0
"03/05/08","07:06:12",57905.000,"cc",28261.807,6.00,6,0.100,47659.000,0.200,5157.000,0.300,2198.000,0.500,2147.000,1.000,744.000,5.000,0
"03/05/08","07:06:18",65884.000,"cc",28335.766,6.00,6,0.100,55330.000,0.200,5901.000,0.300,2030.000,0.500,1932.000,1.000,691.000,5.000,0
"03/05/08","07:06:24",57374.000,"cc",28355.719,6.00,6,0.100,48929.000,0.200,4672.000,0.300,1606.000,0.500,1581.000,1.000,586.000,5.000,0
"03/05/08","07:06:30",57903.000,"cc",28338.383,6.00,6,0.100,48573.000,0.200,4793.000,0.300,1951.000,0.500,1943.000,1.000,643.000,5.000,0
"03/05/08","07:06:36",60847.000,"cc",28323.094,6.00,6,0.100,51614.000,0.200,5153.000,0.300,1749.000,0.500,1738.000,1.000,593.000,5.000,0
"03/05/08","07:06:42",69041.000,"cc",28337.826,6.00,6,0.100,58133.000,0.200,6259.000,0.300,2050.000,0.500,1909.000,1.000,690.000,5.000,0
"03/05/08","07:06:48",63718.000,"cc",28274.340,6.00,6,0.100,54119.000,0.200,5443.000,0.300,1811.000,0.500,1684.000,1.000,661.000,5.000,0
"03/05/08","07:06:54",59509.000,"cc",28310.643,6.00,6,0.100,49823.000,0.200,5060.000,0.300,1981.000,0.500,1969.000,1.000,676.000,5.000,0
"03/05/08","07:07:00",67927.000,"cc",28372.303,6.00,6,0.100,56947.000,0.200,6171.000,0.300,2123.000,0.500,1954.000,1.000,732.000,5.000,0
"03/05/08","07:07:06",63048.000,"cc",28314.039,6.00,6,0.100,52833.000,0.200,5696.000,0.300,1946.000,0.500,1976.000,1.000,597.000,5.000,0
"03/05/08","07:07:12",59783.000,"cc",28328.106,6.00,6,0.100,50103.000,0.200,5213.000,0.300,1979.000,0.500,1851.000,1.000,637.000,5.000,0
"03/05/08","07:07:18",59455.000,"cc",28326.328,6.00,6,0.100,49924.000,0.200,5058.000,0.300,1941.000,0.500,1852.000,1.000,680.000,5.000,0
"03/05/08","07:07:24",55403.000,"cc",28290.416,6.00,6,0.100,46228.000,0.200,4673.000,0.300,1964.000,0.500,1855.000,1.000,683.000,5.000,0
"03/05/08","07:07:30",55547.000,"cc",28313.984,6.00,6,0.100,47378.000,0.200,4452.000,0.300,1609.000,0.500,1553.000,1.000,555.000,5.000,0
"03/05/08","07:07:36",59030.000,"cc",28356.861,6.00,6,0.100,49923.000,0.200,4975.000,0.300,1809.000,0.500,1685.000,1.000,638.000,5.000,0
"03/05/08","07:07:42",58935.000,"cc",28344.703,6.00,6,0.100,49207.000,0.200,5212.000,0.300,1962.000,0.500,1877.000,1.000,677.000,5.000,0
"03/05/08","07:07:48",58423.000,"cc",28336.256,6.00,6,0.100,48442.000,0.200,5038.000,0.300,2173.000,0.500,2024.000,1.000,746.000,5.000,0
"03/05/08","07:07:54",59861.000,"cc",28229.988,6.00,6,0.100,47033.000,0.200,6042.000,0.300,3057.000,0.500,2721.000,1.000,1008.000,5.000,0
"03/05/08","07:08:00",64721.000,"cc",28327.182,6.00,6,0.100,48759.000,0.200,7262.000,0.300,3976.000,0.500,3473.000,1.000,1251.000,5.000,0
"03/05/08","07:08:06",56500.000,"cc",28363.354,6.00,6,0.100,45285.000,0.200,5373.000,0.300,2615.000,0.500,2403.000,1.000,824.000,5.000,0
"03/05/08","07:08:12",63278.000,"cc",28276.875,6.00,6,0.100,48329.000,0.200,6825.000,0.300,3623.000,0.500,3345.000,1.000,1156.000,5.000,0
"03/05/08","07:08:18",65601.000,"cc",28278.875,6.00,6,0.100,49499.000,0.200,7271.000,0.300,3911.000,0.500,3578.000,1.000,1342.000,5.000,0
"03/05/08","07:08:24",54774.000,"cc",28363.336,6.00,6,0.100,45519.000,0.200,4672.000,0.300,1995.000,0.500,1908.000,1.000,680.000,5.000,0
"03/05/08","07:08:30",55263.000,"cc",28292.047,6.00,6,0.100,45199.000,0.200,4920.000,0.300,2266.000,0.500,2146.000,1.000,732.000,5.000,0
"03/05/08","07:08:36",54692.000,"cc",28322.273,6.00,6,0.100,44882.000,0.200,4706.000,0.300,2252.000,0.500,2112.000,1.000,740.000,5.000,0
"03/05/08","07:08:42",59114.000,"cc",28260.143,6.00,6,0.100,46492.000,0.200,5722.000,0.300,3043.000,0.500,2844.000,1.000,1013.000,5.000,0
"03/05/08","07:08:48",55543.000,"cc",28311.930,6.00,6,0.100,45323.000,0.200,4888.000,0.300,2294.000,0.500,2198.000,1.000,840.000,5.000,0
"03/05/08","07:08:54",60409.000,"cc",28384.275,6.00,6,0.100,46688.000,0.200,6056.000,0.300,3367.000,0.500,3182.000,1.000,1116.000,5.000,0
"03/05/08","07:09:00",56178.000,"cc",28260.936,6.00,6,0.100,45308.000,0.200,5125.000,0.300,2484.000,0.500,2369.000,1.000,892.000,5.000,0
"03/05/08","07:09:06",58104.000,"cc",28299.275,6.00,6,0.100,46310.000,0.200,5432.000,0.300,2773.000,0.500,2657.000,1.000,932.000,5.000,0
"03/05/08","07:09:12",54722.000,"cc",28325.320,6.00,6,0.100,45123.000,0.200,4719.000,0.300,2118.000,0.500,2064.000,1.000,698.000,5.000,0
"03/05/08","07:09:18",53751.000,"cc",28316.471,6.00,6,0.100,44688.000,0.200,4452.000,0.300,1986.000,0.500,1927.000,1.000,698.000,5.000,0
"03/05/08","07:09:24",51309.000,"cc",28257.264,6.00,6,0.100,43782.000,0.200,3916.000,0.300,1519.000,0.500,1557.000,1.000,535.000,5.000,0
"03/05/08","07:09:30",53640.000,"cc",28341.244,6.00,6,0.100,44440.000,0.200,4496.000,0.300,1989.000,0.500,2010.000,1.000,705.000,5.000,0
"03/05/08","07:09:36",53477.000,"cc",28356.107,6.00,6,0.100,44497.000,0.200,4475.000,0.300,1959.000,0.500,1873.000,1.000,673.000,5.000,0
"03/05/08","07:09:42",52019.000,"cc",28335.191,6.00,6,0.100,44458.000,0.200,4078.000,0.300,1466.000,0.500,1499.000,1.000,518.000,5.000,0
"03/05/08","07:09:48",54519.000,"cc",28269.012,6.00,6,0.100,45693.000,0.200,4548.000,0.300,1865.000,0.500,1810.000,1.000,603.000,5.000,0
"03/05/08","07:09:54",53831.000,"cc",28334.273,6.00,6,0.100,45409.000,0.200,4267.000,0.300,1782.000,0.500,1763.000,1.000,610.000,5.000,0
"03/05/08","07:10:00",54630.000,"cc",28353.191,6.00,6,0.100,46905.000,0.200,4225.000,0.300,1489.000,0.500,1481.000,1.000,530.000,5.000,0
"03/05/08","07:10:06",56631.000,"cc",28339.969,6.00,6,0.100,46639.000,0.200,4905.000,0.300,2138.000,0.500,2181.000,1.000,768.000,5.000,0
"03/05/08","07:10:12",55553.000,"cc",28298.477,6.00,6,0.100,47100.000,0.200,4559.000,0.300,1672.000,0.500,1652.000,1.000,570.000,5.000,0
"03/05/08","07:10:18",57708.000,"cc",28258.510,6.00,6,0.100,47463.000,0.200,5026.000,0.300,2273.000,0.500,2190.000,1.000,756.000,5.000,0
"03/05/08","07:10:24",57911.000,"cc",28351.168,6.00,6,0.100,47216.000,0.200,5223.000,0.300,2362.000,0.500,2308.000,1.000,802.000,5.000,0
"03/05/08","07:10:30",54563.000,"cc",28346.229,6.00,6,0.100,45391.000,0.200,4651.000,0.300,1959.000,0.500,1860.000,1.000,702.000,5.000,0
"03/05/08","07:10:36",53634.000,"cc",28309.975,6.00,6,0.100,45453.000,0.200,4225.000,0.300,1689.000,0.500,1653.000,1.000,614.000,5.000,0
"03/05/08","07:10:42",57376.000,"cc",28332.139,6.00,6,0.100,46950.000,0.200,5071.000,0.300,2307.000,0.500,2234.000,1.000,814.000,5.000,0
"03/05/08","07:10:48",55193.000,"cc",28265.840,6.00,6,0.100,46702.000,0.200,4450.000,0.300,1751.000,0.500,1712.000,1.000,578.000,5.000,0
"03/05/08","07:10:54",63830.000,"cc",28342.938,6.00,6,0.100,53393.000,0.200,5672.000,0.300,2125.000,0.500,1924.000,1.000,716.000,5.000,0
"03/05/08","07:11:00",69712.000,"cc",28290.766,6.00,6,0.100,57697.000,0.200,6648.000,0.300,2384.000,0.500,2235.000,1.000,748.000,5.000,0
"03/05/08","07:11:06",70382.000,"cc",28347.469,6.00,6,0.100,58846.000,0.200,6520.000,0.300,2223.000,0.500,2100.000,1.000,693.000,5.000,0
"03/05/08","07:11:12",70275.000,"cc",28355.273,6.00,6,0.100,59709.000,0.200,6294.000,0.300,1871.000,0.500,1777.000,1.000,624.000,5.000,0
"03/05/08","07:11:18",83799.000,"cc",28263.398,6.00,6,0.100,70014.000,0.200,8236.000,0.300,2461.000,0.500,2280.000,1.000,808.000,5.000,0
"03/05/08","07:11:24",86208.000,"cc",28302.264,6.00,6,0.100,72090.000,0.200,8452.000,0.300,2587.000,0.500,2297.000,1.000,782.000,5.000,0
"03/05/08","07:11:30",88543.000,"cc",28345.434,6.00,6,0.100,75587.000,0.200,8638.000,0.300,2004.000,0.500,1697.000,1.000,617.000,5.000,0
"03/05/08","07:11:36",70109.000,"cc",28326.852,6.00,6,0.100,60650.000,0.200,6015.000,0.300,1519.000,0.500,1417.000,1.000,508.000,5.000,0
"03/05/08","07:11:42",120584.000,"cc",28239.184,6.00,6,0.100,103465.000,0.200,12550.000,0.300,2100.000,0.500,1861.000,1.000,608.000,5.000,0
"03/05/08","07:11:48",92229.000,"cc",28343.486,6.00,6,0.100,77741.000,0.200,9155.000,0.300,2384.000,0.500,2140.000,1.000,809.000,5.000,0
"03/05/08","07:11:54",80247.000,"cc",28316.236,6.00,6,0.100,68937.000,0.200,7357.000,0.300,1726.000,0.500,1690.000,1.000,537.000,5.000,0
"03/05/08","07:12:00",75496.000,"cc",28331.373,6.00,6,0.100,64438.000,0.200,6858.000,0.300,1854.000,0.500,1759.000,1.000,587.000,5.000,0
"03/05/08","07:12:06",65447.000,"cc",28270.043,6.00,6,0.100,56931.000,0.200,5400.000,0.300,1366.000,0.500,1316.000,1.000,434.000,5.000,0
"03/05/08","07:12:12",80225.000,"cc",28318.523,6.00,6,0.100,68719.000,0.200,7536.000,0.300,1741.000,0.500,1677.000,1.000,552.000,5.000,0
"03/05/08","07:12:18",65002.000,"cc",28302.227,6.00,6,0.100,55445.000,0.200,5515.000,0.300,1763.000,0.500,1635.000,1.000,644.000,5.000,0
"03/05/08","07:12:24",69569.000,"cc",28337.787,6.00,6,0.100,59890.000,0.200,6082.000,0.300,1594.000,0.500,1492.000,1.000,511.000,5.000,0
"03/05/08","07:12:30",67751.000,"cc",28403.572,6.00,6,0.100,58434.000,0.200,5704.000,0.300,1563.000,0.500,1530.000,1.000,520.000,5.000,0
"03/05/08","07:12:36",59249.000,"cc",28220.766,6.00,6,0.100,50641.000,0.200,4830.000,0.300,1641.000,0.500,1582.000,1.000,555.000,5.000,0
"03/05/08","07:12:42",57127.000,"cc",28312.266,6.00,6,0.100,49010.000,0.200,4652.000,0.300,1513.000,0.500,1409.000,1.000,543.000,5.000,0
"03/05/08","07:12:48",67140.000,"cc",28301.289,6.00,6,0.100,57000.000,0.200,5885.000,0.300,1951.000,0.500,1731.000,1.000,573.000,5.000,0
"03/05/08","07:12:54",89710.000,"cc",28335.740,6.00,6,0.100,77215.000,0.200,8520.000,0.300,1828.000,0.500,1556.000,1.000,591.000,5.000,0
"03/05/08","07:13:00",88734.000,"cc",28274.775,6.00,6,0.100,75162.000,0.200,8729.000,0.300,2219.000,0.500,1934.000,1.000,690.000,5.000,0
"03/05/08","07:13:06",98118.000,"cc",28293.152,6.00,6,0.100,84106.000,0.200,9578.000,0.300,2086.000,0.500,1751.000,1.000,597.000,5.000,0
"03/05/08","07:13:12",101015.000,"cc",28269.428,6.00,6,0.100,86589.000,0.200,9992.000,0.300,2106.000,0.500,1708.000,1.000,620.000,5.000,0
"03/05/08","07:13:18",81420.000,"cc",28321.240,6.00,6,0.100,70128.000,0.200,7407.000,0.300,1739.000,0.500,1609.000,1.000,536.000,5.000,1.000
"03/05/08","07:13:24",83720.000,"cc",28273.397,6.00,6,0.100,71291.000,0.200,7982.000,0.300,1990.000,0.500,1806.000,1.000,651.000,5.000,0
"03/05/08","07:13:30",73516.000,"cc",28355.883,6.00,6,0.100,62368.000,0.200,6652.000,0.300,2007.000,0.500,1816.000,1.000,673.000,5.000,0
"03/05/08","07:13:36",85523.000,"cc",28443.160,6.00,6,0.100,70542.000,0.200,8597.000,0.300,2844.000,0.500,2624.000,1.000,916.000,5.000,0
"03/05/08","07:13:42",82173.000,"cc",28281.568,6.00,6,0.100,68076.000,0.200,8204.000,0.300,2625.000,0.500,2439.000,1.000,829.000,5.000,0
"03/05/08","07:13:48",79277.000,"cc",28331.592,6.00,6,0.100,65885.000,0.200,7759.000,0.300,2504.000,0.500,2305.000,1.000,824.000,5.000,0
"03/05/08","07:13:54",69879.000,"cc",28270.621,6.00,6,0.100,59374.000,0.200,6204.000,0.300,1861.000,0.500,1780.000,1.000,660.000,5.000,0
"03/05/08","07:14:00",72874.000,"cc",28253.600,6.00,6,0.100,60912.000,0.200,6935.000,0.300,2211.000,0.500,2068.000,1.000,748.000,5.000,0
"03/05/08","07:14:06",78853.000,"cc",28236.527,6.00,6,0.100,67064.000,0.200,7224.000,0.300,2055.000,0.500,1846.000,1.000,664.000,5.000,0
"03/05/08","07:14:12",58158.000,"cc",28358.512,6.00,6,0.100,49669.000,0.200,4693.000,0.300,1681.000,0.500,1561.000,1.000,554.000,5.000,0
"03/05/08","07:14:18",66114.000,"cc",28359.785,6.00,6,0.100,56131.000,0.200,5801.000,0.300,1804.000,0.500,1730.000,1.000,648.000,5.000,0
"03/05/08","07:14:24",61772.000,"cc",28313.648,6.00,6,0.100,53191.000,0.200,5084.000,0.300,1525.000,0.500,1484.000,1.000,488.000,5.000,0
"03/05/08","07:14:30",61433.000,"cc",28319.088,6.00,6,0.100,52018.000,0.200,5178.000,0.300,1833.000,0.500,1751.000,1.000,653.000,5.000,0
"03/05/08","07:14:36",57530.000,"cc",28304.457,6.00,6,0.100,49097.000,0.200,4510.000,0.300,1655.000,0.500,1638.000,1.000,630.000,5.000,0
"03/05/08","07:14:42",65211.000,"cc",28305.690,6.00,6,0.100,53053.000,0.200,6056.000,0.300,2607.000,0.500,2511.000,1.000,984.000,5.000,0
"03/05/08","07:14:48",71344.000,"cc",28298.660,6.00,6,0.100,57486.000,0.200,6982.000,0.300,2998.000,0.500,2844.000,1.000,1034.000,5.000,0
"03/05/08","07:14:54",67235.000,"cc",28313.775,6.00,6,0.100,55112.000,0.200,6308.000,0.300,2479.000,0.500,2410.000,1.000,926.000,5.000,0
"03/05/08","07:15:00",63464.000,"cc",28365.076,6.00,6,0.100,51029.000,0.200,6011.000,0.300,2704.000,0.500,2704.000,1.000,1016.000,5.000,0
"03/05/08","07:15:06",59365.000,"cc",28311.705,6.00,6,0.100,49888.000,0.200,4999.000,0.300,1947.000,0.500,1872.000,1.000,659.000,5.000,0
"03/05/08","07:15:12",67774.000,"cc",28309.166,6.00,6,0.100,57184.000,0.200,6048.000,0.300,1927.000,0.500,1937.000,1.000,678.000,5.000,0
"03/05/08","07:15:18",61514.000,"cc",28295.742,6.00,6,0.100,51116.000,0.200,5482.000,0.300,2156.000,0.500,2025.000,1.000,735.000,5.000,0
"03/05/08","07:15:24",59980.000,"cc",28328.969,6.00,6,0.100,49527.000,0.200,5333.000,0.300,2257.000,0.500,2093.000,1.000,770.000,5.000,0
"03/05/08","07:15:30",56354.000,"cc",28318.734,6.00,6,0.100,46267.000,0.200,4931.000,0.300,2249.000,0.500,2135.000,1.000,772.000,5.000,0
"03/05/08","07:15:36",66233.000,"cc",28301.861,6.00,6,0.100,55806.000,0.200,5931.000,0.300,1934.000,0.500,1889.000,1.000,673.000,5.000,0
"03/05/08","07:15:42",75532.000,"cc",28298.221,6.00,6,0.100,64215.000,0.200,7008.000,0.300,1869.000,0.500,1794.000,1.000,646.000,5.000,0
"03/05/08","07:15:48",69927.000,"cc",28287.565,6.00,6,0.100,59413.000,0.200,6272.000,0.300,1893.000,0.500,1701.000,1.000,648.000,5.000,0
"03/05/08","07:15:54",79265.000,"cc",28394.236,6.00,6,0.100,67070.000,0.200,7440.000,0.300,2090.000,0.500,1945.000,1.000,720.000,5.000,0
"03/05/08","07:16:00",82314.000,"cc",28323.590,6.00,6,0.100,70521.000,0.200,7660.000,0.300,1873.000,0.500,1593.000,1.000,667.000,5.000,0
"03/05/08","07:16:06",77133.000,"cc",28305.131,6.00,6,0.100,66226.000,0.200,7011.000,0.300,1784.000,0.500,1530.000,1.000,582.000,5.000,0
"03/05/08","07:16:12",83297.000,"cc",28263.523,6.00,6,0.100,71293.000,0.200,7762.000,0.300,1819.000,0.500,1773.000,1.000,650.000,5.000,0
"03/05/08","07:16:18",63677.000,"cc",28337.813,6.00,6,0.100,54808.000,0.200,5254.000,0.300,1550.000,0.500,1526.000,1.000,539.000,5.000,0